Regional Weather Roundup
Issued by NWS State College, PA

Home | Current Version | Previous Version | Graphics & Text | Print | Product List | Glossary On
Versions: 1 2 3 4 5 6 7 8 9 10 11 12 13 14 15 16 17 18 19 20 21 22 23 24 25 26 27 28 29 30 31 32 33 34 35 36 37 38 39 40 41 42 43 44 45 46 47 48 49 50
000
ASUS41 KCTP 290203
RWRCTP

REGIONAL WEATHER ROUNDUP
NATIONAL WEATHER SERVICE STATE COLLEGE PA
1000 PM EDT SAT MAR 28 2015

Note: "fair" indicates few or no clouds below 12,000 feet with no
significant weather and/or obstructions to visibility.

* = STATION THAT DOES NOT REPORT PRECIPITATION /E.G. RAIN...SNOW...ETC/
    THUNDER OR FOG.

PAZ002>004-007>009-013>016-020>023-029>032-290300-
WESTERN PENNSYLVANIA

CITY           SKY/WX    TMP DP  RH WIND       PRES   REMARKS
ERIE           CLEAR     23  11  60 W8        30.27S WCI  14
MEADVILLE      CLEAR     19   8  62 W3        30.23R
FRANKLIN*      CLEAR     18   5  57 W5        30.24R WCI  11
NEW CASTLE     FAIR      20   6  54 CALM      30.29R
BEAVER COUNTY  NOT AVBL
BUTLER*        CLEAR     19   5  53 CALM      30.27R
PITTSBURGH INT CLEAR     23   5  46 NW10      30.26R WCI  12
PITTSBURGH     CLEAR     23   1  38 N9        30.25R WCI  13
INDIANA*       CLEAR     21   5  49 NW5       30.26R WCI  15
LATROBE        CLEAR     23   5  46 NW7       30.27R WCI  15
WASHINGTON CO* CLEAR     23   3  42 NW6       30.28R
$$

PAZ004>006-010>012-017>019-024>028-033>037-041-042-045-046-049>053-290300-
CENTRAL PENNSYLVANIA

CITY           SKY/WX    TMP DP  RH WIND       PRES   REMARKS
BRADFORD       CLEAR     16   6  65 W9        30.12R WCI   4
DUBOIS         CLEAR     19   5  54 NW9       30.16R WCI   8
CLEARFIELD     CLEAR     20   2  45 NW7       30.18R WCI  11
JOHNSTOWN      CLEAR     17   2  51 NW13      30.12R WCI   4
ALTOONA        CLEAR     22   1  40 NW12G22   30.18R WCI  10
STATE COLLEGE  NOT AVBL
WILLIAMSPORT   PTCLDY    24   1  36 NW7       30.20R
SELINSGROVE    CLOUDY    27   5  39 N13       30.20R
FT INDIANTOWN  CLEAR     27   1  32 N8G18     30.16R
CAPITAL CITY   CLOUDY    30   2  30 N10G25    30.17R
HARRISBURG     MOCLDY    30   2  30 NW15G21   30.17R
YORK           CLOUDY    28  11  48 W7        30.15R
$$

PAZ038>040-043-044-047-048-054-055-060>062-067>071-290300-
EASTERN PENNSYLVANIA

CITY           SKY/WX    TMP DP  RH WIND       PRES   REMARKS
SCRANTON       CLOUDY    23   5  46 NW13G18   30.14R WCI  11
MOUNT POCONO   CLOUDY    17   4  56 NW16G26   30.01R WCI   2
ALLENTOWN      MOCLDY    25   7  46 NW17G23   30.14R WCI  12
QUAKERTOWN*    MOCLDY    25   7  46 N12G22    30.13R WCI  14
READING        CLOUDY    28   6  39 N10       30.15R
LANCASTER      CLOUDY    28   8  43 N14       30.15R
COATESVILLE    PTCLDY    27   7  43 NW14G24   30.13R
POTTSTOWN      CLOUDY    27   7  42 N12G22    30.15R
BLUE BELL      PTCLDY    30  12  47 NW3       30.12R
DOYLESTOWN     PTCLDY    25   7  46 NW12G21   30.11R WCI  14
WILLOW GROVE   NOT AVBL
NORTH PHILA    PTCLDY    30   6  36 NW16      30.15R
PHILADELPHIA   MOCLDY    30  13  49 NW22G29   30.15R
$$



USA.gov is the U.S. government's official web portal to all federal, state and local government web resources and services.